| time (UTC) | temp F | wind direction | speed MPH | gust MPH | rain 1hr in | rain 24hr in | rain mn in | humidity % | barometer mb |
| 20260506044212 | 46 | 345 | 1.0 | 1.0 | 0.00 | 0.00 | 0.00 | 97 | 964.0 |
| 20260506043209 | 46 | 5 | 3.0 | 3.0 | 0.00 | 0.00 | 0.00 | 97 | 964.1 |
| 20260506042206 | 46 | 338 | 2.0 | 2.0 | 0.00 | 0.00 | 0.00 | 97 | 964.2 |
| 20260506041203 | 47 | 348 | 2.0 | 2.0 | 0.00 | 0.00 | 0.00 | 97 | 964.4 |
| 20260506040200 | 47 | 337 | 1.0 | 1.0 | 0.00 | 0.00 | 0.00 | 97 | 964.4 |
| 20260506035157 | 47 | 330 | 2.0 | 3.0 | 0.00 | 0.00 | 0.00 | 97 | 964.5 |
| 20260506034154 | 47 | 332 | 1.0 | 2.0 | 0.00 | 0.00 | 0.00 | 97 | 964.6 |
| 20260506033151 | 47 | 265 | 1.0 | 1.0 | 0.00 | 0.00 | 0.00 | 97 | 964.7 |
| 20260506032147 | 48 | 5 | 0.0 | 1.0 | 0.00 | 0.00 | 0.00 | 97 | 964.7 |
| 20260506031144 | 48 | 333 | 2.0 | 2.0 | 0.00 | 0.00 | 0.00 | 97 | 964.4 |
| 20260506030141 | 48 | 349 | 0.0 | 1.0 | 0.00 | 0.00 | 0.00 | 97 | 964.3 |
| 20260506025138 | 48 | 331 | 2.0 | 3.0 | 0.00 | 0.00 | 0.00 | 97 | 964.2 |
| 20260506024135 | 48 | 345 | 1.0 | 1.0 | 0.00 | 0.00 | 0.00 | 97 | 964.1 |
| 20260506023131 | 48 | 343 | 2.0 | 2.0 | 0.00 | 0.00 | 0.00 | 97 | 964.0 |
| 20260506022128 | 48 | 308 | 0.0 | 1.0 | 0.00 | 0.00 | 0.00 | 97 | 964.4 |
| 20260506021125 | 48 | 326 | 2.0 | 2.0 | 0.00 | 0.00 | 0.00 | 97 | 964.3 |
| 20260506020122 | 48 | 309 | 1.0 | 1.0 | 0.00 | 0.00 | 0.00 | 97 | 964.3 |
| 20260506015119 | 48 | 7 | 1.0 | 1.0 | 0.00 | 0.00 | 0.00 | 97 | 964.2 |
| 20260506014116 | 48 | 305 | 1.0 | 2.0 | 0.00 | 0.00 | 0.00 | 97 | 964.1 |
| 20260506013113 | 48 | 228 | 1.0 | 1.0 | 0.00 | 0.00 | 0.00 | 97 | 964.1 |
| 20260506012109 | 48 | 308 | 2.0 | 3.0 | 0.00 | 0.00 | 0.00 | 97 | 963.9 |
| 20260506011106 | 48 | 24 | 1.0 | 2.0 | 0.00 | 0.00 | 0.00 | 97 | 963.8 |
| 20260506010103 | 48 | 355 | 1.0 | 1.0 | 0.00 | 0.00 | 0.00 | 97 | 963.9 |
| 20260506005100 | 48 | 283 | 1.0 | 1.0 | 0.00 | 0.00 | 0.00 | 97 | 963.7 |
| 20260506004057 | 48 | 350 | 1.0 | 1.0 | 0.00 | 0.00 | 0.00 | 96 | 963.8 |
| 20260506003054 | 48 | 339 | 1.0 | 1.0 | 0.00 | 0.00 | 0.00 | 96 | 963.7 |
| 20260506002051 | 48 | 7 | 1.0 | 1.0 | 0.00 | 0.00 | 0.00 | 96 | 963.6 |
| 20260506001047 | 47 | 54 | 1.0 | 2.0 | 0.00 | 0.00 | 0.00 | 96 | 963.5 |
| 20260506000044 | 48 | 340 | 2.0 | 2.0 | 0.00 | 0.00 | 0.00 | 96 | 963.6 |
| 20260505235041 | 48 | 57 | 1.0 | 2.0 | 0.00 | 0.00 | 0.00 | 96 | 963.9 |
| 20260505234038 | 48 | 3 | 1.0 | 2.0 | 0.00 | 0.00 | 0.00 | 96 | 963.9 |
| 20260505233035 | 48 | 26 | 1.0 | 2.0 | 0.00 | 0.00 | 0.00 | 96 | 963.9 |
| 20260505232032 | 47 | 294 | 2.0 | 3.0 | 0.00 | 0.00 | 0.00 | 96 | 964.7 |
| 20260505231028 | 47 | 307 | 2.0 | 2.0 | 0.00 | 0.00 | 0.00 | 96 | 963.9 |
| 20260505230025 | 47 | 27 | 2.0 | 3.0 | 0.00 | 0.00 | 0.00 | 96 | 963.8 |
| 20260505225022 | 48 | 346 | 2.0 | 3.0 | 0.00 | 0.00 | 0.00 | 96 | 964.1 |
| 20260505224019 | 48 | 354 | 1.0 | 2.0 | 0.00 | 0.00 | 0.00 | 96 | 964.0 |
| 20260505223016 | 48 | 8 | 1.0 | 1.0 | 0.00 | 0.00 | 0.00 | 96 | 964.0 |
| 20260505222012 | 48 | 0 | 1.0 | 1.0 | 0.00 | 0.00 | 0.00 | 96 | 964.0 |
| 20260505221009 | 49 | 0 | 2.0 | 3.0 | 0.00 | 0.00 | 0.00 | 96 | 964.0 |
| 20260505220006 | 49 | 12 | 2.0 | 3.0 | 0.00 | 0.00 | 0.00 | 96 | 963.8 |
| 20260505215003 | 49 | 30 | 2.0 | 4.0 | 0.00 | 0.00 | 0.00 | 96 | 963.8 |
| 20260505214000 | 50 | 314 | 1.0 | 2.0 | 0.00 | 0.00 | 0.00 | 96 | 963.9 |
| 20260505212957 | 51 | 225 | 2.0 | 2.0 | 0.00 | 0.00 | 0.00 | 95 | 964.2 |
| 20260505211954 | 52 | 342 | 2.0 | 4.0 | 0.00 | 0.00 | 0.00 | 95 | 963.6 |
| 20260505210951 | 53 | 325 | 3.0 | 4.0 | 0.00 | 0.00 | 0.00 | 95 | 963.4 |
| 20260505205947 | 54 | 337 | 4.0 | 4.0 | 0.00 | 0.00 | 0.00 | 95 | 963.3 |
| 20260505204944 | 54 | 304 | 2.0 | 3.0 | 0.00 | 0.00 | 0.00 | 95 | 963.5 |
| 20260505203941 | 54 | 249 | 2.0 | 2.0 | 0.00 | 0.00 | 0.00 | 94 | 963.7 |
| 20260505202938 | 54 | 263 | 2.0 | 2.0 | 0.00 | 0.00 | 0.00 | 94 | 963.4 |
| 20260505201935 | 54 | 289 | 2.0 | 2.0 | 0.00 | 0.00 | 0.00 | 94 | 963.3 |
| 20260505200932 | 54 | 287 | 2.0 | 3.0 | 0.00 | 0.00 | 0.00 | 93 | 963.5 |
| 20260505195929 | 55 | 299 | 2.0 | 3.0 | 0.00 | 0.00 | 0.00 | 92 | 963.6 |
| 20260505194926 | 55 | 287 | 2.0 | 4.0 | 0.00 | 0.00 | 0.00 | 91 | 963.7 |
| 20260505193923 | 56 | 293 | 2.0 | 2.0 | 0.00 | 0.00 | 0.00 | 91 | 963.6 |
| 20260505192919 | 56 | 305 | 1.0 | 2.0 | 0.00 | 0.00 | 0.00 | 90 | 963.8 |
| 20260505191916 | 56 | 269 | 2.0 | 2.0 | 0.00 | 0.00 | 0.00 | 89 | 963.7 |
| 20260505190913 | 57 | 276 | 2.0 | 2.0 | 0.00 | 0.00 | 0.00 | 88 | 963.8 |
| 20260505185910 | 58 | 284 | 2.0 | 5.0 | 0.00 | 0.00 | 0.00 | 86 | 963.8 |
| 20260505184907 | 59 | 330 | 3.0 | 4.0 | 0.00 | 0.00 | 0.00 | 81 | 963.8 |
| 20260505183904 | 60 | 286 | 2.0 | 3.0 | 0.00 | 0.00 | 0.00 | 77 | 963.9 |
| 20260505182900 | 60 | 292 | 4.0 | 6.0 | 0.00 | 0.00 | 0.00 | 76 | 963.9 |
| 20260505181857 | 60 | 320 | 2.0 | 4.0 | 0.00 | 0.00 | 0.00 | 76 | 963.8 |
| 20260505180854 | 60 | 295 | 2.0 | 4.0 | 0.00 | 0.00 | 0.00 | 76 | 963.8 |
| 20260505175851 | 60 | 239 | 3.0 | 4.0 | 0.00 | 0.00 | 0.00 | 75 | 963.8 |
| 20260505174848 | 60 | 281 | 4.0 | 7.0 | 0.00 | 0.00 | 0.00 | 75 | 963.7 |
| 20260505173845 | 60 | 281 | 3.0 | 5.0 | 0.00 | 0.00 | 0.00 | 75 | 963.8 |
| 20260505172841 | 61 | 306 | 3.0 | 5.0 | 0.00 | 0.00 | 0.00 | 74 | 963.6 |
| 20260505171838 | 61 | 290 | 2.0 | 5.0 | 0.00 | 0.00 | 0.00 | 74 | 963.5 |
| 20260505170835 | 60 | 281 | 5.0 | 8.0 | 0.00 | 0.00 | 0.00 | 74 | 963.4 |
| 20260505165832 | 60 | 283 | 5.0 | 8.0 | 0.00 | 0.00 | 0.00 | 74 | 963.5 |
| 20260505164829 | 61 | 294 | 4.0 | 5.0 | 0.00 | 0.00 | 0.00 | 72 | 963.4 |
| 20260505163826 | 63 | 285 | 5.0 | 14.0 | 0.00 | 0.00 | 0.00 | 70 | 963.3 |
| 20260505162823 | 66 | 283 | 5.0 | 11.0 | 0.00 | 0.00 | 0.00 | 64 | 963.1 |
| 20260505161820 | 68 | 276 | 6.0 | 10.0 | 0.00 | 0.00 | 0.00 | 60 | 962.8 |
| 20260505160816 | 68 | 277 | 3.0 | 4.0 | 0.00 | 0.00 | 0.00 | 60 | 962.9 |
| 20260505152804 | 67 | 234 | 3.0 | 8.0 | 0.00 | 0.00 | 0.00 | 61 | 962.2 |
| 20260505151801 | 66 | 186 | 3.0 | 6.0 | 0.00 | 0.00 | 0.00 | 62 | 962.3 |
| 20260505150757 | 65 | 316 | 2.0 | 4.0 | 0.00 | 0.00 | 0.00 | 65 | 962.4 |
| 20260505124712 | 61 | 229 | 2.0 | 3.0 | 0.00 | 0.00 | 0.00 | 71 | 961.8 |
| 20260505123709 | 61 | 229 | 2.0 | 3.0 | 0.00 | 0.00 | 0.00 | 71 | 961.6 |
| 20260505122706 | 61 | 192 | 2.0 | 3.0 | 0.00 | 0.00 | 0.00 | 70 | 961.4 |
| 20260505121702 | 61 | 140 | 3.0 | 4.0 | 0.00 | 0.00 | 0.00 | 70 | 961.1 |
| 20260505120659 | 62 | 204 | 3.0 | 7.0 | 0.00 | 0.00 | 0.00 | 69 | 961.0 |
| 20260505115656 | 62 | 180 | 3.0 | 6.0 | 0.00 | 0.00 | 0.00 | 69 | 961.2 |
| 20260505114653 | 63 | 235 | 3.0 | 5.0 | 0.00 | 0.00 | 0.00 | 66 | 961.1 |
| 20260505113650 | 63 | 203 | 2.0 | 3.0 | 0.00 | 0.00 | 0.00 | 66 | 960.9 |
| 20260505112647 | 63 | 232 | 2.0 | 4.0 | 0.00 | 0.00 | 0.00 | 66 | 961.0 |
| 20260505111643 | 63 | 252 | 2.0 | 4.0 | 0.00 | 0.00 | 0.00 | 65 | 960.8 |
| 20260505110640 | 63 | 201 | 3.0 | 4.0 | 0.00 | 0.00 | 0.00 | 66 | 960.7 |
| 20260505101624 | 64 | 195 | 4.0 | 9.0 | 0.00 | 0.00 | 0.00 | 65 | 960.0 |
| 20260505100621 | 64 | 207 | 3.0 | 4.0 | 0.00 | 0.00 | 0.00 | 65 | 960.0 |
| 20260505095618 | 63 | 250 | 2.0 | 4.0 | 0.00 | 0.00 | 0.00 | 66 | 959.7 |
| 20260505094615 | 63 | 228 | 2.0 | 2.0 | 0.00 | 0.00 | 0.00 | 67 | 959.7 |
| 20260505093612 | 64 | 193 | 1.0 | 2.0 | 0.00 | 0.00 | 0.00 | 66 | 959.5 |
| 20260505092609 | 64 | 188 | 2.0 | 3.0 | 0.00 | 0.00 | 0.00 | 65 | 959.3 |
| 20260505091606 | 64 | 227 | 2.0 | 4.0 | 0.00 | 0.00 | 0.00 | 65 | 959.3 |
| 20260505090603 | 64 | 208 | 3.0 | 4.0 | 0.00 | 0.00 | 0.00 | 64 | 959.3 |
| 20260505085559 | 64 | 225 | 4.0 | 7.0 | 0.00 | 0.00 | 0.00 | 64 | 959.3 |
| 20260505084556 | 64 | 239 | 3.0 | 4.0 | 0.00 | 0.00 | 0.00 | 64 | 959.4 |
| 20260505083553 | 64 | 217 | 2.0 | 4.0 | 0.00 | 0.00 | 0.00 | 65 | 959.4 |
| 20260505082550 | 64 | 279 | 2.0 | 4.0 | 0.00 | 0.00 | 0.00 | 65 | 959.3 |
| 20260505081547 | 64 | 289 | 4.0 | 8.0 | 0.00 | 0.00 | 0.00 | 66 | 959.2 |
| 20260505080544 | 64 | 196 | 2.0 | 4.0 | 0.00 | 0.00 | 0.00 | 66 | 959.1 |
| 20260505075541 | 64 | 177 | 3.0 | 5.0 | 0.00 | 0.00 | 0.00 | 67 | 959.1 |
| 20260505074538 | 64 | 181 | 2.0 | 4.0 | 0.00 | 0.00 | 0.00 | 67 | 959.0 |
| 20260505073535 | 64 | 215 | 3.0 | 4.0 | 0.00 | 0.00 | 0.00 | 67 | 959.0 |
| 20260505072532 | 65 | 246 | 2.0 | 3.0 | 0.00 | 0.00 | 0.00 | 66 | 959.0 |
| 20260505071528 | 65 | 159 | 2.0 | 4.0 | 0.00 | 0.00 | 0.00 | 64 | 958.9 |
| 20260505070525 | 65 | 210 | 3.0 | 5.0 | 0.00 | 0.00 | 0.00 | 64 | 958.9 |
| 20260505065522 | 65 | 176 | 2.0 | 4.0 | 0.00 | 0.00 | 0.00 | 64 | 959.0 |
| 20260505064519 | 65 | 218 | 3.0 | 4.0 | 0.00 | 0.00 | 0.00 | 64 | 959.1 |
| 20260505063516 | 65 | 167 | 3.0 | 5.0 | 0.00 | 0.00 | 0.00 | 65 | 959.1 |
| 20260505062513 | 65 | 137 | 3.0 | 6.0 | 0.00 | 0.00 | 0.00 | 64 | 959.3 |
| 20260505061510 | 65 | 177 | 2.0 | 2.0 | 0.00 | 0.00 | 0.00 | 65 | 959.3 |
| 20260505060507 | 65 | 205 | 2.0 | 3.0 | 0.00 | 0.00 | 0.00 | 64 | 959.4 |
| 20260505055503 | 64 | 216 | 2.0 | 3.0 | 0.00 | 0.00 | 0.00 | 66 | 959.7 |
| 20260505054500 | 64 | 171 | 3.0 | 5.0 | 0.00 | 0.00 | 0.00 | 67 | 959.7 |
| 20260505053457 | 64 | 147 | 3.0 | 5.0 | 0.00 | 0.00 | 0.00 | 68 | 959.9 |
| 20260505052454 | 63 | 186 | 4.0 | 5.0 | 0.00 | 0.00 | 0.00 | 69 | 960.0 |
| 20260505051451 | 63 | 166 | 2.0 | 3.0 | 0.00 | 0.00 | 0.00 | 71 | 960.1 |
| 20260505050448 | 62 | 201 | 2.0 | 3.0 | 0.00 | 0.00 | 0.00 | 72 | 960.2 |